Time,TemperatureF,DewpointF,PressureIn,WindDirection,WindDirectionDegrees,WindSpeedMPH,WindSpeedGustMPH,Humidity,HourlyPrecipIn,Conditions,Clouds,dailyrainin,SoftwareType,DateUTC
2013-11-20 00:04:00,37.9,21.0,30.06,SSE,158,3.4,3.4,50,0.00,,,0.00,VWS V14.01,2013-11-20 06:04:00,
2013-11-20 00:10:00,37.9,21.4,30.06,NNE,22,2.5,4.0,51,0.00,,,0.00,VWS V14.01,2013-11-20 06:10:00,
2013-11-20 00:15:00,37.9,21.4,30.06,SSW,202,8.5,8.5,51,0.00,,,0.00,VWS V14.01,2013-11-20 06:15:00,
2013-11-20 00:20:00,38.1,21.6,30.03,WNW,292,2.9,6.7,51,0.00,,,0.00,VWS V14.01,2013-11-20 06:20:00,
2013-11-20 00:25:00,38.1,21.6,30.03,NNE,22,5.4,5.8,51,0.00,,,0.00,VWS V14.01,2013-11-20 06:25:00,
2013-11-20 00:30:00,38.1,21.6,30.03,NNW,338,1.6,6.5,51,0.00,,,0.00,VWS V14.01,2013-11-20 06:30:00,
2013-11-20 00:35:00,38.1,21.6,30.03,NNW,338,3.1,3.6,51,0.00,,,0.00,VWS V14.01,2013-11-20 06:35:00,
2013-11-20 00:40:00,38.3,21.8,30.03,SE,135,4.7,5.6,51,0.00,,,0.00,VWS V14.01,2013-11-20 06:40:00,
2013-11-20 00:45:00,38.3,21.8,30.03,NNW,338,2.9,3.4,51,0.00,,,0.00,VWS V14.01,2013-11-20 06:45:00,
2013-11-20 00:50:00,38.3,21.8,30.06,NE,45,1.1,3.8,51,0.00,,,0.00,VWS V14.01,2013-11-20 06:50:00,
2013-11-20 00:56:00,38.3,21.8,30.06,SW,225,2.0,4.3,51,0.00,,,0.00,VWS V14.01,2013-11-20 06:56:00,
2013-11-20 01:01:00,38.5,21.9,30.06,NNE,22,4.3,5.8,51,0.00,,,0.00,VWS V14.01,2013-11-20 07:01:00,
2013-11-20 01:06:00,38.5,21.9,30.03,SE,135,2.0,6.5,51,0.00,,,0.00,VWS V14.01,2013-11-20 07:06:00,
2013-11-20 01:11:00,38.5,21.9,30.03,SE,135,3.8,5.8,51,0.00,,,0.00,VWS V14.01,2013-11-20 07:11:00,
2013-11-20 01:16:00,38.5,21.9,30.03,East,90,1.6,6.5,51,0.00,,,0.00,VWS V14.01,2013-11-20 07:16:00,
2013-11-20 01:21:00,38.7,21.6,30.03,WSW,248,5.4,5.4,50,0.00,,,0.00,VWS V14.01,2013-11-20 07:21:00,
2013-11-20 01:26:00,38.7,21.6,30.03,ENE,68,2.0,5.4,50,0.00,,,0.00,VWS V14.01,2013-11-20 07:26:00,
2013-11-20 01:31:00,38.7,21.6,30.03,NE,45,6.3,7.8,50,0.00,,,0.00,VWS V14.01,2013-11-20 07:31:00,
2013-11-20 01:36:00,38.7,21.6,30.06,NNE,22,2.5,4.7,50,0.00,,,0.00,VWS V14.01,2013-11-20 07:36:00,
2013-11-20 01:42:00,38.8,21.8,30.06,East,90,1.6,6.0,50,0.00,,,0.00,VWS V14.01,2013-11-20 07:42:00,
2013-11-20 01:47:00,38.8,21.8,30.06,South,180,4.0,4.0,50,0.00,,,0.00,VWS V14.01,2013-11-20 07:47:00,
2013-11-20 01:52:00,38.8,21.8,30.06,East,90,2.7,3.4,50,0.00,,,0.00,VWS V14.01,2013-11-20 07:52:00,
2013-11-20 01:57:00,38.8,21.8,30.06,WSW,248,4.3,5.4,50,0.00,,,0.00,VWS V14.01,2013-11-20 07:57:00,
2013-11-20 02:02:00,38.8,21.8,30.06,ESE,112,4.0,8.1,50,0.00,,,0.00,VWS V14.01,2013-11-20 08:02:00,
2013-11-20 02:07:00,39.0,22.0,30.03,ESE,112,3.8,6.5,50,0.00,,,0.00,VWS V14.01,2013-11-20 08:07:00,
2013-11-20 02:12:00,39.0,22.0,30.03,ESE,112,2.0,5.6,50,0.00,,,0.00,VWS V14.01,2013-11-20 08:12:00,
2013-11-20 02:17:00,39.0,22.0,30.03,NW,315,1.3,4.9,50,0.00,,,0.00,VWS V14.01,2013-11-20 08:17:00,
2013-11-20 02:22:00,39.2,21.7,30.03,NNW,338,3.4,6.7,49,0.00,,,0.00,VWS V14.01,2013-11-20 08:22:00,
2013-11-20 02:28:00,39.2,21.7,30.03,ESE,112,1.1,6.3,49,0.00,,,0.00,VWS V14.01,2013-11-20 08:28:00,
2013-11-20 02:33:00,39.4,21.8,30.03,SSE,158,5.4,6.5,49,0.00,,,0.00,VWS V14.01,2013-11-20 08:33:00,
2013-11-20 02:38:00,39.4,21.8,30.03,East,90,4.3,6.5,49,0.00,,,0.00,VWS V14.01,2013-11-20 08:38:00,
2013-11-20 02:43:00,39.4,21.8,30.03,ESE,112,4.0,6.3,49,0.00,,,0.00,VWS V14.01,2013-11-20 08:43:00,
2013-11-20 02:48:00,39.6,22.0,30.03,NNW,338,2.0,5.6,49,0.00,,,0.00,VWS V14.01,2013-11-20 08:48:00,
2013-11-20 02:53:00,39.6,22.0,30.03,WSW,248,2.0,3.8,49,0.00,,,0.00,VWS V14.01,2013-11-20 08:53:00,
2013-11-20 02:58:00,39.6,21.5,30.03,SE,135,7.2,7.2,48,0.00,,,0.00,VWS V14.01,2013-11-20 08:58:00,
2013-11-20 03:03:00,39.7,21.7,30.03,SSE,158,2.7,2.7,48,0.00,,,0.00,VWS V14.01,2013-11-20 09:03:00,
2013-11-20 03:08:00,39.7,22.2,30.03,North,0,3.1,6.3,49,0.00,,,0.00,VWS V14.01,2013-11-20 09:08:00,
2013-11-20 03:13:00,39.7,22.2,30.03,South,180,4.0,4.0,49,0.00,,,0.00,VWS V14.01,2013-11-20 09:13:00,
2013-11-20 03:18:00,39.7,22.2,30.03,WNW,292,4.3,4.3,49,0.00,,,0.00,VWS V14.01,2013-11-20 09:18:00,
2013-11-20 03:23:00,39.7,21.7,30.03,West,270,3.1,3.1,48,0.00,,,0.00,VWS V14.01,2013-11-20 09:23:00,
2013-11-20 03:28:00,39.9,21.8,30.03,West,270,4.0,4.0,48,0.00,,,0.00,VWS V14.01,2013-11-20 09:28:00,
2013-11-20 03:33:00,39.7,21.7,30.03,ENE,68,3.1,3.1,48,0.00,,,0.00,VWS V14.01,2013-11-20 09:33:00,
2013-11-20 03:38:00,39.7,0.0,30.03,East,90,1.3,3.4,100,0.00,,,0.00,VWS V14.01,2013-11-20 09:38:00,
2013-11-20 03:43:00,39.9,21.8,30.03,NNE,22,1.6,4.7,48,0.00,,,0.00,VWS V14.01,2013-11-20 09:43:00,
2013-11-20 03:48:00,39.9,21.8,30.03,ESE,112,3.8,3.8,48,0.00,,,0.00,VWS V14.01,2013-11-20 09:48:00,
2013-11-20 03:53:00,39.9,21.8,30.03,NNE,22,3.1,4.0,48,0.00,,,0.00,VWS V14.01,2013-11-20 09:53:00,
2013-11-20 03:59:00,39.9,21.8,30.03,NNW,338,3.1,4.7,48,0.00,,,0.00,VWS V14.01,2013-11-20 09:59:00,
2013-11-20 04:04:00,39.9,21.8,30.03,WSW,248,3.4,4.0,48,0.00,,,0.00,VWS V14.01,2013-11-20 10:04:00,
2013-11-20 04:09:00,40.1,21.5,30.03,ESE,112,6.0,6.3,47,0.00,,,0.00,VWS V14.01,2013-11-20 10:09:00,
2013-11-20 04:14:00,40.1,21.5,30.03,South,180,2.9,3.4,47,0.00,,,0.00,VWS V14.01,2013-11-20 10:14:00,
2013-11-20 04:19:00,40.1,21.5,30.03,South,180,6.0,6.0,47,0.00,,,0.00,VWS V14.01,2013-11-20 10:19:00,
2013-11-20 04:24:00,40.1,21.5,30.03,NNE,22,2.5,4.7,47,0.00,,,0.00,VWS V14.01,2013-11-20 10:24:00,
2013-11-20 04:29:00,40.1,21.5,30.03,SSE,158,4.0,4.0,47,0.00,,,0.00,VWS V14.01,2013-11-20 10:29:00,
2013-11-20 04:34:00,40.1,21.5,30.03,ESE,112,1.3,3.8,47,0.00,,,0.00,VWS V14.01,2013-11-20 10:34:00,
2013-11-20 04:39:00,40.1,21.5,30.03,WSW,248,6.3,6.3,47,0.00,,,0.00,VWS V14.01,2013-11-20 10:39:00,
2013-11-20 04:44:00,40.1,21.5,30.03,SE,135,2.9,3.4,47,0.00,,,0.00,VWS V14.01,2013-11-20 10:44:00,
2013-11-20 04:49:00,39.9,21.3,30.00,NNE,22,2.0,3.8,47,0.00,,,0.00,VWS V14.01,2013-11-20 10:49:00,
2013-11-20 04:54:00,39.9,21.3,30.00,SW,225,6.3,6.3,47,0.00,,,0.00,VWS V14.01,2013-11-20 10:54:00,
2013-11-20 04:59:00,39.9,21.3,30.00,NNE,22,2.5,6.0,47,0.00,,,0.00,VWS V14.01,2013-11-20 10:59:00,
2013-11-20 05:04:00,40.1,21.0,30.00,ENE,68,2.5,4.9,46,0.00,,,0.00,VWS V14.01,2013-11-20 11:04:00,
2013-11-20 05:09:00,40.1,21.0,30.00,WSW,248,1.3,3.4,46,0.00,,,0.00,VWS V14.01,2013-11-20 11:09:00,
2013-11-20 05:14:00,40.1,21.0,30.00,East,90,3.6,3.6,46,0.00,,,0.00,VWS V14.01,2013-11-20 11:14:00,
2013-11-20 05:20:00,40.1,21.0,30.00,ENE,68,5.4,5.4,46,0.00,,,0.00,VWS V14.01,2013-11-20 11:20:00,
2013-11-20 05:25:00,40.1,21.0,30.00,SSW,202,3.1,3.6,46,0.00,,,0.00,VWS V14.01,2013-11-20 11:25:00,
2013-11-20 05:30:00,40.3,21.2,30.00,NNE,22,2.9,5.8,46,0.00,,,0.00,VWS V14.01,2013-11-20 11:30:00,
2013-11-20 05:35:00,40.3,21.2,30.00,SSW,202,2.0,7.4,46,0.00,,,0.00,VWS V14.01,2013-11-20 11:35:00,
2013-11-20 05:40:00,40.3,21.2,30.00,NNE,22,2.7,4.7,46,0.00,,,0.00,VWS V14.01,2013-11-20 11:40:00,
2013-11-20 05:45:00,39.7,21.2,30.00,NE,45,3.8,6.5,47,0.00,,,0.00,VWS V14.01,2013-11-20 11:45:00,
2013-11-20 05:50:00,39.7,21.2,29.97,NE,45,2.7,6.5,47,0.00,,,0.00,VWS V14.01,2013-11-20 11:50:00,
2013-11-20 05:55:00,39.7,20.7,29.97,ENE,68,2.7,5.6,46,0.00,,,0.00,VWS V14.01,2013-11-20 11:55:00,
2013-11-20 06:00:00,39.7,20.7,29.97,SW,225,3.4,4.9,46,0.00,,,0.00,VWS V14.01,2013-11-20 12:00:00,
2013-11-20 06:05:00,39.9,20.8,30.00,NW,315,2.0,3.4,46,0.00,,,0.00,VWS V14.01,2013-11-20 12:05:00,
2013-11-20 06:10:00,39.9,20.8,30.00,SW,225,5.4,5.4,46,0.00,,,0.00,VWS V14.01,2013-11-20 12:10:00,
2013-11-20 06:15:00,39.9,20.8,30.00,NE,45,3.6,4.7,46,0.00,,,0.00,VWS V14.01,2013-11-20 12:15:00,
2013-11-20 06:20:00,39.9,20.8,30.00,ENE,68,4.0,4.9,46,0.00,,,0.00,VWS V14.01,2013-11-20 12:20:00,
2013-11-20 06:25:00,39.7,21.2,30.00,NNE,22,2.7,4.9,47,0.00,,,0.00,VWS V14.01,2013-11-20 12:25:00,
2013-11-20 06:30:00,39.7,21.2,30.00,ESE,112,2.9,6.3,47,0.00,,,0.00,VWS V14.01,2013-11-20 12:30:00,
2013-11-20 06:35:00,39.7,21.2,29.97,NNE,22,3.4,6.3,47,0.00,,,0.00,VWS V14.01,2013-11-20 12:35:00,
2013-11-20 06:41:00,39.7,21.2,29.97,WSW,248,1.3,4.7,47,0.00,,,0.00,VWS V14.01,2013-11-20 12:41:00,
2013-11-20 06:46:00,39.7,21.2,29.97,East,90,3.1,6.5,47,0.00,,,0.00,VWS V14.01,2013-11-20 12:46:00,
2013-11-20 06:51:00,39.7,20.7,29.97,ENE,68,3.8,4.3,46,0.00,,,0.00,VWS V14.01,2013-11-20 12:51:00,
2013-11-20 06:56:00,39.7,20.7,29.97,WNW,292,2.9,3.8,46,0.00,,,0.00,VWS V14.01,2013-11-20 12:56:00,
2013-11-20 07:01:00,39.7,20.7,29.97,East,90,2.7,6.5,46,0.00,,,0.00,VWS V14.01,2013-11-20 13:01:00,
2013-11-20 07:06:00,39.9,20.8,30.00,South,180,4.0,6.3,46,0.00,,,0.00,VWS V14.01,2013-11-20 13:06:00,
2013-11-20 07:11:00,39.9,20.8,30.00,East,90,3.1,4.9,46,0.00,,,0.00,VWS V14.01,2013-11-20 13:11:00,
2013-11-20 07:16:00,39.9,20.8,30.00,NNE,22,2.0,4.9,46,0.00,,,0.00,VWS V14.01,2013-11-20 13:16:00,
2013-11-20 07:21:00,39.9,20.8,30.00,SSW,202,3.6,3.8,46,0.00,,,0.00,VWS V14.01,2013-11-20 13:21:00,
2013-11-20 07:26:00,39.7,20.7,30.00,SE,135,1.3,7.8,46,0.00,,,0.00,VWS V14.01,2013-11-20 13:26:00,
2013-11-20 07:31:00,39.7,20.7,30.00,East,90,3.8,7.2,46,0.00,,,0.00,VWS V14.01,2013-11-20 13:31:00,
2013-11-20 07:36:00,39.7,20.7,30.00,WSW,248,1.6,6.5,46,0.00,,,0.00,VWS V14.01,2013-11-20 13:36:00,
2013-11-20 07:41:00,39.7,20.7,30.00,ENE,68,2.7,3.6,46,0.00,,,0.00,VWS V14.01,2013-11-20 13:41:00,
2013-11-20 07:46:00,39.7,20.7,30.00,NE,45,2.5,6.0,46,0.00,,,0.00,VWS V14.01,2013-11-20 13:46:00,
2013-11-20 07:52:00,39.7,20.7,30.00,South,180,1.6,5.4,46,0.00,,,0.00,VWS V14.01,2013-11-20 13:52:00,
2013-11-20 07:57:00,39.7,20.7,30.00,ENE,68,6.0,6.0,46,0.00,,,0.00,VWS V14.01,2013-11-20 13:57:00,
2013-11-20 08:02:00,39.7,20.7,30.00,SSW,202,5.6,5.6,46,0.00,,,0.00,VWS V14.01,2013-11-20 14:02:00,
2013-11-20 08:07:00,39.7,20.7,30.03,SE,135,3.6,4.7,46,0.00,,,0.00,VWS V14.01,2013-11-20 14:07:00,
2013-11-20 08:12:00,39.7,20.7,30.03,East,90,3.6,4.7,46,0.00,,,0.00,VWS V14.01,2013-11-20 14:12:00,
2013-11-20 08:17:00,39.7,20.7,30.03,South,180,4.3,6.0,46,0.00,,,0.00,VWS V14.01,2013-11-20 14:17:00,
2013-11-20 08:22:00,39.7,20.7,30.00,North,0,2.5,5.4,46,0.00,,,0.00,VWS V14.01,2013-11-20 14:22:00,
2013-11-20 08:27:00,39.7,21.2,30.00,North,0,1.3,5.4,47,0.00,,,0.00,VWS V14.01,2013-11-20 14:27:00,
2013-11-20 08:32:00,39.7,21.2,30.00,NE,45,3.8,5.6,47,0.00,,,0.00,VWS V14.01,2013-11-20 14:32:00,
2013-11-20 08:37:00,39.7,21.2,30.03,WSW,248,2.2,6.0,47,0.00,,,0.00,VWS V14.01,2013-11-20 14:37:00,
2013-11-20 08:42:00,39.9,21.3,30.03,NNE,22,3.4,4.3,47,0.00,,,0.00,VWS V14.01,2013-11-20 14:42:00,
2013-11-20 08:47:00,40.1,21.5,30.03,ENE,68,1.3,5.6,47,0.00,,,0.00,VWS V14.01,2013-11-20 14:47:00,
2013-11-20 08:53:00,40.3,21.7,30.03,NNE,22,2.0,10.3,47,0.00,,,0.00,VWS V14.01,2013-11-20 14:53:00,
2013-11-20 08:58:00,40.3,21.7,30.03,ENE,68,3.4,4.3,47,0.00,,,0.00,VWS V14.01,2013-11-20 14:58:00,
2013-11-20 09:03:00,40.3,21.7,30.03,SE,135,1.6,4.7,47,0.00,,,0.00,VWS V14.01,2013-11-20 15:03:00,
2013-11-20 09:08:00,40.3,21.7,30.03,East,90,4.9,6.0,47,0.00,,,0.00,VWS V14.01,2013-11-20 15:08:00,
2013-11-20 09:13:00,40.3,21.7,30.03,ENE,68,1.3,6.3,47,0.00,,,0.00,VWS V14.01,2013-11-20 15:13:00,
2013-11-20 09:18:00,40.3,21.7,30.03,ESE,112,6.3,6.3,47,0.00,,,0.00,VWS V14.01,2013-11-20 15:18:00,
2013-11-20 09:23:00,40.3,21.7,30.03,WNW,292,3.6,6.3,47,0.00,,,0.00,VWS V14.01,2013-11-20 15:23:00,
2013-11-20 09:28:00,40.3,21.7,30.03,SSE,158,3.8,6.3,47,0.00,,,0.00,VWS V14.01,2013-11-20 15:28:00,
2013-11-20 09:33:00,40.5,21.8,30.03,SW,225,6.3,6.3,47,0.00,,,0.00,VWS V14.01,2013-11-20 15:33:00,
2013-11-20 09:38:00,40.5,21.8,30.03,North,0,2.5,3.6,47,0.00,,,0.00,VWS V14.01,2013-11-20 15:38:00,
2013-11-20 09:43:00,40.5,21.8,30.03,East,90,7.2,7.2,47,0.00,,,0.00,VWS V14.01,2013-11-20 15:43:00,
2013-11-20 09:48:00,40.6,22.0,30.03,WSW,248,1.1,1.3,47,0.00,,,0.00,VWS V14.01,2013-11-20 15:48:00,
2013-11-20 09:53:00,40.6,22.0,30.03,SSW,202,5.4,5.4,47,0.00,,,0.00,VWS V14.01,2013-11-20 15:53:00,
2013-11-20 09:58:00,40.8,22.2,30.03,NW,315,1.1,1.3,47,0.00,,,0.00,VWS V14.01,2013-11-20 15:58:00,
2013-11-20 10:03:00,40.8,22.2,30.03,ENE,68,3.1,5.6,47,0.00,,,0.00,VWS V14.01,2013-11-20 16:03:00,
2013-11-20 10:09:00,40.8,22.2,30.03,NNE,22,3.1,5.4,47,0.00,,,0.00,VWS V14.01,2013-11-20 16:09:00,
2013-11-20 10:14:00,41.0,22.3,30.03,SW,225,4.0,4.0,47,0.00,,,0.00,VWS V14.01,2013-11-20 16:14:00,
2013-11-20 10:19:00,41.0,22.3,30.06,NNE,22,1.3,3.8,47,0.00,,,0.00,VWS V14.01,2013-11-20 16:19:00,
2013-11-20 10:24:00,41.2,22.5,30.06,WSW,248,2.7,2.7,47,0.00,,,0.00,VWS V14.01,2013-11-20 16:24:00,
2013-11-20 10:29:00,41.2,22.5,30.06,WNW,292,3.1,4.9,47,0.00,,,0.00,VWS V14.01,2013-11-20 16:29:00,
2013-11-20 10:34:00,41.2,22.5,30.06,South,180,3.1,4.3,47,0.00,,,0.00,VWS V14.01,2013-11-20 16:34:00,
2013-11-20 10:39:00,41.0,22.3,30.06,SSW,202,4.9,6.0,47,0.00,,,0.00,VWS V14.01,2013-11-20 16:39:00,
2013-11-20 10:44:00,40.6,22.5,30.06,South,180,4.3,5.6,48,0.00,,,0.00,VWS V14.01,2013-11-20 16:44:00,
2013-11-20 10:49:00,40.6,22.5,30.03,South,180,2.9,3.1,48,0.00,,,0.00,VWS V14.01,2013-11-20 16:49:00,
2013-11-20 10:54:00,40.6,22.5,30.03,NNW,338,1.1,3.6,48,0.00,,,0.00,VWS V14.01,2013-11-20 16:54:00,
2013-11-20 10:59:00,40.5,22.3,30.03,WNW,292,6.3,6.3,48,0.00,,,0.00,VWS V14.01,2013-11-20 16:59:00,
2013-11-20 11:04:00,40.5,22.8,30.03,ENE,68,0.0,6.0,49,0.00,,,0.00,VWS V14.01,2013-11-20 17:04:00,
2013-11-20 11:09:00,40.5,22.8,30.03,East,90,3.1,3.1,49,0.00,,,0.00,VWS V14.01,2013-11-20 17:09:00,
2013-11-20 11:14:00,40.5,22.8,30.03,NE,45,1.1,6.0,49,0.00,,,0.00,VWS V14.01,2013-11-20 17:14:00,
2013-11-20 11:19:00,40.5,22.8,30.03,South,180,3.8,6.5,49,0.00,,,0.00,VWS V14.01,2013-11-20 17:19:00,
2013-11-20 11:24:00,40.6,23.0,30.03,WSW,248,3.8,7.8,49,0.00,,,0.00,VWS V14.01,2013-11-20 17:24:00,
2013-11-20 11:30:00,40.6,23.0,30.03,NE,45,3.6,3.6,49,0.00,,,0.00,VWS V14.01,2013-11-20 17:30:00,
2013-11-20 11:35:00,40.6,23.0,30.03,ENE,68,2.0,5.4,49,0.00,,,0.00,VWS V14.01,2013-11-20 17:35:00,
2013-11-20 11:40:00,40.6,23.0,30.03,SSW,202,3.8,5.8,49,0.00,,,0.00,VWS V14.01,2013-11-20 17:40:00,
2013-11-20 11:45:00,40.5,22.8,30.03,South,180,3.8,5.4,49,0.00,,,0.00,VWS V14.01,2013-11-20 17:45:00,
2013-11-20 11:50:00,40.3,22.7,30.03,WSW,248,2.0,5.6,49,0.00,,,0.00,VWS V14.01,2013-11-20 17:50:00,
2013-11-20 11:55:00,40.3,23.1,30.03,SSW,202,2.7,5.6,50,0.00,,,0.00,VWS V14.01,2013-11-20 17:55:00,
2013-11-20 12:00:00,40.1,23.0,30.03,SW,225,1.6,4.7,50,0.00,,,0.00,VWS V14.01,2013-11-20 18:00:00,
2013-11-20 12:05:00,39.9,22.8,30.03,NNW,338,1.6,4.9,50,0.00,,,0.00,VWS V14.01,2013-11-20 18:05:00,
2013-11-20 12:10:00,39.7,23.1,30.03,West,270,2.9,3.6,51,0.00,,,0.00,VWS V14.01,2013-11-20 18:10:00,
2013-11-20 12:15:00,39.6,22.9,30.03,ESE,112,2.9,4.7,51,0.00,,,0.00,VWS V14.01,2013-11-20 18:15:00,
2013-11-20 12:20:00,39.2,23.5,30.03,ESE,112,3.1,5.6,53,0.00,,,0.00,VWS V14.01,2013-11-20 18:20:00,
2013-11-20 12:25:00,39.2,23.5,30.03,ENE,68,2.7,6.3,53,0.00,,,0.00,VWS V14.01,2013-11-20 18:25:00,
2013-11-20 12:30:00,38.7,23.9,30.03,WNW,292,5.8,5.8,55,0.00,,,0.00,VWS V14.01,2013-11-20 18:30:00,
2013-11-20 12:35:00,38.5,24.6,30.03,North,0,2.2,4.9,57,0.00,,,0.00,VWS V14.01,2013-11-20 18:35:00,
2013-11-20 12:40:00,38.3,24.8,30.03,ENE,68,2.7,5.4,58,0.00,,,0.00,VWS V14.01,2013-11-20 18:40:00,
2013-11-20 12:45:00,37.9,25.3,30.03,NNE,22,5.8,5.8,60,0.00,,,0.00,VWS V14.01,2013-11-20 18:45:00,
2013-11-20 12:50:00,37.8,26.3,30.03,East,90,2.7,8.7,63,0.00,,,0.00,VWS V14.01,2013-11-20 18:50:00,
2013-11-20 12:56:00,37.4,26.7,30.03,SSW,202,6.3,8.7,65,0.00,,,0.00,VWS V14.01,2013-11-20 18:56:00,
2013-11-20 13:01:00,36.9,27.7,30.03,WSW,248,3.8,5.8,69,0.00,,,0.00,VWS V14.01,2013-11-20 19:01:00,
2013-11-20 13:06:00,36.1,28.3,30.03,SSW,202,2.5,2.5,73,0.00,,,0.00,VWS V14.01,2013-11-20 19:06:00,
2013-11-20 13:11:00,35.6,28.8,30.03,SSE,158,2.0,3.8,76,0.00,,,0.00,VWS V14.01,2013-11-20 19:11:00,
2013-11-20 13:16:00,35.2,29.4,30.03,NNE,22,1.1,4.3,79,0.00,,,0.00,VWS V14.01,2013-11-20 19:16:00,
2013-11-20 13:21:00,34.9,30.2,30.03,ENE,68,2.5,6.0,83,0.00,,,0.00,VWS V14.01,2013-11-20 19:21:00,
2013-11-20 13:26:00,34.3,30.0,30.03,NE,45,1.1,3.6,84,0.00,,,0.00,VWS V14.01,2013-11-20 19:26:00,
2013-11-20 13:31:00,34.2,30.4,30.03,NNE,22,2.7,3.8,86,0.00,,,0.00,VWS V14.01,2013-11-20 19:31:00,
2013-11-20 13:36:00,34.0,30.5,30.03,NNE,22,0.0,3.6,87,0.00,,,0.00,VWS V14.01,2013-11-20 19:36:00,
2013-11-20 13:41:00,34.0,30.5,30.03,SW,225,3.8,4.3,87,0.00,,,0.00,VWS V14.01,2013-11-20 19:41:00,
2013-11-20 13:46:00,34.0,30.8,30.03,SSW,202,2.9,4.9,88,0.00,,,0.00,VWS V14.01,2013-11-20 19:46:00,
2013-11-20 13:51:00,33.8,30.9,30.00,North,0,3.8,3.8,89,0.00,,,0.00,VWS V14.01,2013-11-20 19:51:00,
2013-11-20 13:56:00,33.8,30.9,30.00,SE,135,3.6,4.9,89,0.00,,,0.00,VWS V14.01,2013-11-20 19:56:00,
2013-11-20 14:01:00,33.6,31.3,30.00,NNE,22,2.5,4.3,91,0.00,,,0.00,VWS V14.01,2013-11-20 20:01:00,
2013-11-20 14:06:00,33.6,31.5,30.00,ENE,68,2.0,4.9,92,0.00,,,0.00,VWS V14.01,2013-11-20 20:06:00,
2013-11-20 14:11:00,33.6,31.5,30.00,North,0,0.9,4.3,92,0.00,,,0.00,VWS V14.01,2013-11-20 20:11:00,
2013-11-20 14:17:00,33.8,32.0,30.00,SSW,202,3.4,4.3,93,0.00,,,0.00,VWS V14.01,2013-11-20 20:17:00,
2013-11-20 14:22:00,33.6,31.8,30.00,ENE,68,2.0,3.8,93,0.00,,,0.00,VWS V14.01,2013-11-20 20:22:00,
2013-11-20 14:27:00,33.6,31.8,30.00,NE,45,2.9,5.8,93,0.00,,,0.00,VWS V14.01,2013-11-20 20:27:00,
2013-11-20 14:32:00,33.6,32.1,30.00,WSW,248,2.9,6.9,94,0.00,,,0.00,VWS V14.01,2013-11-20 20:32:00,
2013-11-20 14:37:00,33.6,32.1,30.00,NNE,22,2.2,4.0,94,0.00,,,0.00,VWS V14.01,2013-11-20 20:37:00,
2013-11-20 14:42:00,33.6,32.3,30.00,SSE,158,2.9,6.0,95,0.00,,,0.00,VWS V14.01,2013-11-20 20:42:00,
2013-11-20 14:47:00,33.6,32.3,30.00,North,0,2.7,3.1,95,0.00,,,0.00,VWS V14.01,2013-11-20 20:47:00,
2013-11-20 14:52:00,33.6,32.3,30.00,NNW,338,0.0,4.0,95,0.00,,,0.00,VWS V14.01,2013-11-20 20:52:00,
2013-11-20 14:57:00,33.6,32.3,30.00,NNW,338,1.1,2.2,95,0.00,,,0.00,VWS V14.01,2013-11-20 20:57:00,
2013-11-20 15:02:00,33.6,32.3,30.00,ESE,112,3.1,5.6,95,0.00,,,0.00,VWS V14.01,2013-11-20 21:02:00,
2013-11-20 15:07:00,33.6,32.3,30.00,NNW,338,2.2,3.6,95,0.00,,,0.00,VWS V14.01,2013-11-20 21:07:00,
2013-11-20 15:12:00,33.6,32.3,30.00,ESE,112,2.7,3.4,95,0.00,,,0.00,VWS V14.01,2013-11-20 21:12:00,
2013-11-20 15:17:00,33.6,32.3,30.00,ENE,68,0.0,4.9,95,0.00,,,0.00,VWS V14.01,2013-11-20 21:17:00,
2013-11-20 15:23:00,33.6,32.3,30.00,NE,45,2.7,2.7,95,0.00,,,0.00,VWS V14.01,2013-11-20 21:23:00,
2013-11-20 15:28:00,33.8,32.3,30.00,SE,135,1.6,4.0,94,0.00,,,0.00,VWS V14.01,2013-11-20 21:28:00,
2013-11-20 15:33:00,33.8,32.5,30.00,ENE,68,0.0,4.5,95,0.00,,,0.00,VWS V14.01,2013-11-20 21:33:00,
2013-11-20 15:38:00,33.8,32.3,30.00,ENE,68,0.0,4.9,94,0.00,,,0.00,VWS V14.01,2013-11-20 21:38:00,
2013-11-20 15:43:00,33.8,32.3,30.00,NNW,338,0.0,2.7,94,0.00,,,0.00,VWS V14.01,2013-11-20 21:43:00,
2013-11-20 15:48:00,33.8,32.3,30.00,South,180,0.0,0.0,94,0.00,,,0.00,VWS V14.01,2013-11-20 21:48:00,
2013-11-20 15:53:00,33.8,32.3,30.00,ESE,112,2.9,3.4,94,0.00,,,0.00,VWS V14.01,2013-11-20 21:53:00,
2013-11-20 15:58:00,33.8,32.0,30.00,ENE,68,4.9,4.9,93,0.00,,,0.00,VWS V14.01,2013-11-20 21:58:00,
2013-11-20 16:03:00,33.6,31.8,30.03,ENE,68,0.0,1.1,93,0.00,,,0.00,VWS V14.01,2013-11-20 22:03:00,
2013-11-20 16:08:00,33.6,31.8,30.03,East,90,1.1,1.3,93,0.00,,,0.00,VWS V14.01,2013-11-20 22:08:00,
2013-11-20 16:13:00,33.4,31.9,30.03,ENE,68,0.9,0.9,94,0.00,,,0.00,VWS V14.01,2013-11-20 22:13:00,
2013-11-20 16:18:00,33.3,31.7,30.00,ENE,68,1.3,1.6,94,0.00,,,0.00,VWS V14.01,2013-11-20 22:18:00,
2013-11-20 16:23:00,33.1,31.8,30.00,ENE,68,1.6,1.6,95,0.00,,,0.00,VWS V14.01,2013-11-20 22:23:00,
2013-11-20 16:28:00,32.9,31.6,30.00,ENE,68,1.1,1.1,95,0.00,,,0.00,VWS V14.01,2013-11-20 22:28:00,
2013-11-20 16:34:00,32.9,31.9,30.00,East,90,1.3,1.6,96,0.00,,,0.00,VWS V14.01,2013-11-20 22:34:00,
2013-11-20 16:39:00,32.7,31.7,30.00,ENE,68,2.7,2.7,96,0.00,,,0.00,VWS V14.01,2013-11-20 22:39:00,
2013-11-20 16:44:00,32.7,32.0,30.00,ENE,68,0.0,1.6,97,0.00,,,0.00,VWS V14.01,2013-11-20 22:44:00,
2013-11-20 16:49:00,32.7,32.0,30.03,ENE,68,0.9,2.9,97,0.00,,,0.00,VWS V14.01,2013-11-20 22:49:00,
2013-11-20 16:54:00,32.7,32.0,30.03,ENE,68,0.0,1.3,97,0.00,,,0.00,VWS V14.01,2013-11-20 22:54:00,
2013-11-20 16:59:00,32.7,32.0,30.03,ENE,68,0.0,2.0,97,0.00,,,0.00,VWS V14.01,2013-11-20 22:59:00,
2013-11-20 17:04:00,32.7,32.0,30.03,ENE,68,0.9,2.0,97,0.00,,,0.00,VWS V14.01,2013-11-20 23:04:00,
2013-11-20 17:09:00,32.7,32.0,30.03,ENE,68,0.0,1.3,97,0.00,,,0.00,VWS V14.01,2013-11-20 23:09:00,
2013-11-20 17:14:00,32.7,32.2,30.03,ENE,68,0.9,1.3,98,0.00,,,0.00,VWS V14.01,2013-11-20 23:14:00,
2013-11-20 17:19:00,32.7,32.2,30.00,ENE,68,1.3,1.3,98,0.00,,,0.00,VWS V14.01,2013-11-20 23:19:00,
2013-11-20 17:24:00,32.7,32.2,30.00,ENE,68,2.0,2.9,98,0.00,,,0.00,VWS V14.01,2013-11-20 23:24:00,
2013-11-20 17:30:00,32.7,32.2,30.00,ENE,68,2.9,2.9,98,0.00,,,0.00,VWS V14.01,2013-11-20 23:30:00,
2013-11-20 17:35:00,32.7,32.2,30.00,ENE,68,2.0,2.0,98,0.00,,,0.00,VWS V14.01,2013-11-20 23:35:00,
2013-11-20 17:40:00,32.7,32.2,30.00,ENE,68,0.9,2.5,98,0.00,,,0.00,VWS V14.01,2013-11-20 23:40:00,
2013-11-20 17:45:00,32.9,32.4,30.00,ENE,68,1.3,2.9,98,0.00,,,0.00,VWS V14.01,2013-11-20 23:45:00,
2013-11-20 17:50:00,32.9,32.4,30.03,ENE,68,0.9,1.6,98,0.00,,,0.00,VWS V14.01,2013-11-20 23:50:00,
2013-11-20 17:55:00,32.9,32.4,30.03,ENE,68,0.0,1.6,98,0.00,,,0.00,VWS V14.01,2013-11-20 23:55:00,
2013-11-20 18:00:00,32.9,32.4,30.03,ENE,68,1.3,3.4,98,0.00,,,0.00,VWS V14.01,2013-11-21 00:00:00,
2013-11-20 18:05:00,32.9,32.4,30.03,ENE,68,1.6,2.9,98,0.00,,,0.00,VWS V14.01,2013-11-21 00:05:00,
2013-11-20 18:10:00,33.1,32.6,30.03,ENE,68,1.6,4.3,98,0.00,,,0.00,VWS V14.01,2013-11-21 00:10:00,
2013-11-20 18:15:00,33.1,32.6,30.03,ENE,68,1.3,1.3,98,0.00,,,0.00,VWS V14.01,2013-11-21 00:15:00,
2013-11-20 18:21:00,33.1,32.6,30.03,ENE,68,1.6,2.9,98,0.00,,,0.00,VWS V14.01,2013-11-21 00:21:00,
2013-11-20 18:26:00,33.1,32.6,30.03,ENE,68,2.0,2.5,98,0.00,,,0.00,VWS V14.01,2013-11-21 00:26:00,
2013-11-20 18:31:00,33.1,32.6,30.03,ENE,68,2.5,3.4,98,0.00,,,0.00,VWS V14.01,2013-11-21 00:31:00,
2013-11-20 18:36:00,33.1,32.6,30.00,ENE,68,1.3,2.9,98,0.00,,,0.00,VWS V14.01,2013-11-21 00:36:00,
2013-11-20 18:41:00,33.1,32.6,30.00,ENE,68,0.9,1.6,98,0.00,,,0.00,VWS V14.01,2013-11-21 00:41:00,
2013-11-20 18:46:00,33.1,32.6,30.00,ENE,68,0.0,3.4,98,0.00,,,0.00,VWS V14.01,2013-11-21 00:46:00,
2013-11-20 18:51:00,33.1,32.6,30.03,ENE,68,0.0,0.0,98,0.00,,,0.00,VWS V14.01,2013-11-21 00:51:00,
2013-11-20 18:56:00,33.1,32.6,30.03,ENE,68,0.0,1.3,98,0.00,,,0.00,VWS V14.01,2013-11-21 00:56:00,
2013-11-20 19:02:00,33.1,32.6,30.03,ENE,68,2.0,2.2,98,0.00,,,0.00,VWS V14.01,2013-11-21 01:02:00,
2013-11-20 19:07:00,33.1,32.6,30.03,ENE,68,0.9,2.5,98,0.00,,,0.00,VWS V14.01,2013-11-21 01:07:00,
2013-11-20 19:12:00,33.1,32.6,30.03,ENE,68,1.3,2.9,98,0.00,,,0.00,VWS V14.01,2013-11-21 01:12:00,
2013-11-20 19:17:00,33.1,32.6,30.03,ENE,68,0.0,2.9,98,0.00,,,0.00,VWS V14.01,2013-11-21 01:17:00,
2013-11-20 19:22:00,33.1,32.6,30.03,ENE,68,0.0,2.0,98,0.00,,,0.00,VWS V14.01,2013-11-21 01:22:00,
2013-11-20 19:27:00,33.1,32.6,30.03,ENE,68,0.0,1.6,98,0.00,,,0.00,VWS V14.01,2013-11-21 01:27:00,
2013-11-20 19:32:00,33.3,32.8,30.03,ENE,68,1.6,3.8,98,0.00,,,0.00,VWS V14.01,2013-11-21 01:32:00,
2013-11-20 19:37:00,33.1,32.6,30.03,ENE,68,1.6,4.0,98,0.00,,,0.00,VWS V14.01,2013-11-21 01:37:00,
2013-11-20 19:42:00,33.1,32.6,30.03,ENE,68,0.0,2.2,98,0.00,,,0.00,VWS V14.01,2013-11-21 01:42:00,
2013-11-20 19:47:00,33.1,32.6,30.03,ENE,68,2.0,2.2,98,0.00,,,0.00,VWS V14.01,2013-11-21 01:47:00,
2013-11-20 19:53:00,33.1,32.6,30.03,SSE,158,2.9,3.6,98,0.00,,,0.00,VWS V14.01,2013-11-21 01:53:00,
2013-11-20 19:58:00,33.1,32.6,30.03,SE,135,1.1,5.4,98,0.00,,,0.00,VWS V14.01,2013-11-21 01:58:00,
2013-11-20 20:03:00,32.9,32.4,30.03,SE,135,2.2,2.5,98,0.00,,,0.00,VWS V14.01,2013-11-21 02:03:00,
2013-11-20 20:08:00,32.9,32.4,30.03,SE,135,1.1,2.2,98,0.00,,,0.00,VWS V14.01,2013-11-21 02:08:00,
2013-11-20 20:13:00,32.9,32.4,30.03,SE,135,2.2,2.2,98,0.00,,,0.00,VWS V14.01,2013-11-21 02:13:00,
2013-11-20 20:18:00,32.9,32.4,30.03,SE,135,0.0,2.2,98,0.00,,,0.00,VWS V14.01,2013-11-21 02:18:00,
2013-11-20 20:23:00,32.9,32.4,30.03,SE,135,0.9,1.1,98,0.00,,,0.00,VWS V14.01,2013-11-21 02:23:00,
2013-11-20 20:28:00,32.9,32.4,30.03,SE,135,1.3,2.5,98,0.00,,,0.00,VWS V14.01,2013-11-21 02:28:00,
2013-11-20 20:33:00,32.9,32.4,30.03,SE,135,0.0,0.0,98,0.00,,,0.00,VWS V14.01,2013-11-21 02:33:00,
2013-11-20 20:38:00,32.9,32.4,30.06,SE,135,0.0,0.0,98,0.00,,,0.00,VWS V14.01,2013-11-21 02:38:00,
2013-11-20 20:43:00,32.9,32.4,30.06,SE,135,0.0,0.0,98,0.00,,,0.00,VWS V14.01,2013-11-21 02:43:00,
2013-11-20 20:49:00,32.9,32.4,30.06,SE,135,0.9,1.3,98,0.00,,,0.00,VWS V14.01,2013-11-21 02:49:00,
2013-11-20 20:54:00,32.9,32.4,30.06,SE,135,0.9,0.9,98,0.00,,,0.00,VWS V14.01,2013-11-21 02:54:00,
2013-11-20 20:59:00,32.9,32.4,30.06,SE,135,0.0,1.3,98,0.00,,,0.00,VWS V14.01,2013-11-21 02:59:00,
2013-11-20 21:04:00,33.1,32.6,30.03,SE,135,0.0,0.0,98,0.00,,,0.00,VWS V14.01,2013-11-21 03:04:00,
2013-11-20 21:09:00,33.1,32.6,30.03,SE,135,1.3,1.3,98,0.00,,,0.00,VWS V14.01,2013-11-21 03:09:00,
2013-11-20 21:14:00,33.1,32.6,30.03,SE,135,0.0,2.5,98,0.00,,,0.00,VWS V14.01,2013-11-21 03:14:00,
2013-11-20 21:20:00,33.1,32.6,30.06,SE,135,2.0,2.5,98,0.00,,,0.00,VWS V14.01,2013-11-21 03:20:00,
2013-11-20 21:25:00,33.1,32.6,30.06,SE,135,0.0,1.6,98,0.00,,,0.00,VWS V14.01,2013-11-21 03:25:00,
2013-11-20 21:30:00,33.1,32.6,30.06,ENE,68,4.5,4.5,98,0.00,,,0.00,VWS V14.01,2013-11-21 03:30:00,
2013-11-20 21:35:00,33.1,32.6,30.06,East,90,0.0,2.7,98,0.00,,,0.00,VWS V14.01,2013-11-21 03:35:00,
2013-11-20 21:40:00,33.1,32.6,30.06,East,90,0.9,1.6,98,0.00,,,0.00,VWS V14.01,2013-11-21 03:40:00,
2013-11-20 21:45:00,33.3,32.8,30.06,SE,135,1.6,2.5,98,0.00,,,0.00,VWS V14.01,2013-11-21 03:45:00,
2013-11-20 21:50:00,33.3,32.8,30.06,SE,135,0.0,0.0,98,0.00,,,0.00,VWS V14.01,2013-11-21 03:50:00,
2013-11-20 21:55:00,33.3,32.8,30.06,SE,135,0.0,2.5,98,0.00,,,0.00,VWS V14.01,2013-11-21 03:55:00,
2013-11-20 22:01:00,33.3,32.8,30.06,SE,135,0.0,2.0,98,0.00,,,0.00,VWS V14.01,2013-11-21 04:01:00,
2013-11-20 22:06:00,33.3,32.8,30.06,SE,135,0.0,1.3,98,0.00,,,0.00,VWS V14.01,2013-11-21 04:06:00,
2013-11-20 22:11:00,33.3,32.8,30.06,SE,135,2.0,2.2,98,0.00,,,0.00,VWS V14.01,2013-11-21 04:11:00,
2013-11-20 22:16:00,33.3,32.8,30.06,ENE,68,2.2,3.1,98,0.00,,,0.00,VWS V14.01,2013-11-21 04:16:00,
2013-11-20 22:21:00,33.3,32.8,30.06,ENE,68,0.0,2.2,98,0.00,,,0.00,VWS V14.01,2013-11-21 04:21:00,
2013-11-20 22:26:00,33.3,32.8,30.06,ENE,68,0.0,0.0,98,0.00,,,0.00,VWS V14.01,2013-11-21 04:26:00,
2013-11-20 22:31:00,33.3,32.8,30.06,ENE,68,0.0,0.0,98,0.00,,,0.00,VWS V14.01,2013-11-21 04:31:00,
2013-11-20 22:36:00,33.3,32.8,30.06,ENE,68,0.0,2.9,98,0.00,,,0.00,VWS V14.01,2013-11-21 04:36:00,
2013-11-20 22:41:00,33.3,32.8,30.06,ENE,68,0.0,2.9,98,0.00,,,0.00,VWS V14.01,2013-11-21 04:41:00,
2013-11-20 22:46:00,33.3,32.8,30.06,ENE,68,0.0,0.0,98,0.00,,,0.00,VWS V14.01,2013-11-21 04:46:00,
2013-11-20 22:51:00,33.3,32.8,30.09,ENE,68,0.0,1.6,98,0.00,,,0.00,VWS V14.01,2013-11-21 04:51:00,
2013-11-20 22:57:00,33.3,32.8,30.09,ENE,68,2.2,2.2,98,0.00,,,0.00,VWS V14.01,2013-11-21 04:57:00,
2013-11-20 23:01:00,33.3,32.8,30.09,ESE,112,0.0,2.9,98,0.00,,,0.00,VWS V14.01,2013-11-21 05:01:00,
2013-11-20 23:02:00,33.3,32.8,30.09,ENE,68,0.0,2.9,98,0.00,,,0.00,VWS V14.01,2013-11-21 05:02:00,
2013-11-20 23:03:00,33.3,32.8,30.06,ENE,68,0.0,2.0,98,0.00,,,0.00,VWS V14.01,2013-11-21 05:03:00,
2013-11-20 23:05:00,33.3,32.8,30.06,ENE,68,1.3,3.6,98,0.00,,,0.00,VWS V14.01,2013-11-21 05:05:00,
2013-11-20 23:10:00,33.3,32.8,30.06,ENE,68,1.3,1.6,98,0.00,,,0.00,VWS V14.01,2013-11-21 05:10:00,
2013-11-20 23:15:00,33.3,32.8,30.06,ENE,68,0.0,0.0,98,0.00,,,0.00,VWS V14.01,2013-11-21 05:15:00,
2013-11-20 23:21:00,33.3,32.8,30.06,ENE,68,0.0,0.0,98,0.00,,,0.00,VWS V14.01,2013-11-21 05:21:00,
2013-11-20 23:25:00,33.3,32.8,30.06,South,180,0.0,1.6,98,0.00,,,0.00,VWS V14.01,2013-11-21 05:25:00,
2013-11-20 23:31:00,33.3,32.8,30.06,NE,45,1.3,1.6,98,0.00,,,0.00,VWS V14.01,2013-11-21 05:31:00,
2013-11-20 23:36:00,33.3,32.8,30.06,ENE,68,0.0,1.3,98,0.00,,,0.00,VWS V14.01,2013-11-21 05:36:00,
2013-11-20 23:41:00,33.3,32.8,30.06,ESE,112,0.0,0.0,98,0.00,,,0.00,VWS V14.01,2013-11-21 05:41:00,
2013-11-20 23:46:00,33.3,32.8,30.06,ESE,112,0.0,0.0,98,0.00,,,0.00,VWS V14.01,2013-11-21 05:46:00,
2013-11-20 23:51:00,33.3,32.8,30.03,ESE,112,0.0,0.0,98,0.00,,,0.00,VWS V14.01,2013-11-21 05:51:00,
2013-11-20 23:56:00,33.3,32.8,30.03,ESE,112,0.0,0.0,98,0.00,,,0.00,VWS V14.01,2013-11-21 05:56:00,
2013-11-20 23:58:00,33.3,32.8,30.03,ESE,112,0.0,0.0,98,0.00,,,0.00,VWS V14.01,2013-11-21 05:58:00,